Home > Weather > Regina > Past weeks

Flag for Canada Weather for the Past 2 Weeks in Regina, Saskatchewan, Canada

Now
9 °F

Broken clouds.


Feels Like: -8 °F
Forecast: 6 / 27 °F
Wind: 15 mph from Southeast

Location: Regina Weather Station

Current Time: Feb 12, 2016 at 7:41:53 PM

Latest Report: Feb 12, 2016 at 6:00 PM


Visibility: 15 mi

Pressure: 30.60 "Hg (28.37 "Hg at 577m altitude)

Humidity: 61%

Dew point: -2 °F

Location of ReginaLocation

Historic Weather in Regina — Graph

°F

Regina Temperature Yesterday

Maximum temperature yesterday: 19 °F (at 3:00 PM)
Minimum temperature yesterday: 7 °F (at 10:00 PM)
Average temperature yesterday: 14 °F

High & Low Weather Summary for the Past Weeks

 TemperatureHumidityPressure
High45 °F (Feb 6, 12:00 PM)100% (Jan 31, 10:00 PM)30.74 "Hg (Jan 31, 10:00 PM)
Low-2 °F (Feb 12, 5:00 AM)56% (Feb 12, 1:00 PM)29.36 "Hg (Jan 29, 1:00 AM)
Average22 °F83%30.05 "Hg
* Reported Jan 28 6:00 PM — Feb 12 6:00 PM, Regina, Weather by CustomWeather, © 2016

Note: Actual official high and low records may vary slightly from our data, if they occured in-between our weather recording intervals... More about our weather records

Advertising

Regina Weather History for the Previous 24 Hours

 ConditionsComfort  
Time TempWeatherWind HumidityBarometerVisibility
6:00 PM
Fri, Feb 12
9 °FBroken clouds.15 mph61%30.60 "Hg15 mi
5:00 PM9 °FPartly sunny.15 mph56%30.60 "Hg15 mi
4:00 PM10 °FPartly sunny.15 mph56%30.62 "Hg15 mi
3:00 PM10 °FPartly sunny.12 mph56%30.65 "Hg15 mi
2:00 PM10 °FPartly sunny.13 mph56%30.68 "Hg15 mi
1:00 PM9 °FPartly sunny.9 mph56%30.71 "Hg15 mi
12:00 PM7 °FPartly sunny.9 mph66%30.73 "Hg15 mi
11:00 AM5 °FBroken clouds.8 mph72%30.72 "Hg15 mi
10:00 AM1 °FScattered clouds.8 mph78%30.72 "Hg15 mi
9:00 AM0 °FScattered clouds.6 mph84%30.74 "Hg15 mi
8:00 AM0 °FPassing clouds.5 mph78%30.72 "Hg15 mi
7:00 AM0 °FOvercast.3 mph84%30.71 "Hg15 mi
6:00 AM-2 °FClear.3 mph92%30.70 "Hg15 mi
5:00 AM-2 °FClear.5 mph84%30.69 "Hg15 mi
4:00 AM0 °FClear.3 mph84%30.66 "Hg15 mi
3:00 AM0 °FClear.3 mph84%30.63 "Hg15 mi
2:00 AM1 °FClear.5 mph85%30.62 "Hg15 mi
1:00 AM3 °FClear.5 mph78%30.59 "Hg15 mi
12:00 AM7 °FPassing clouds.10 mph72%30.57 "Hg15 mi
11:00 PM
Thu, Feb 11
9 °FOvercast.8 mph78%30.54 "Hg15 mi
10:00 PM7 °FOvercast.9 mph85%30.52 "Hg15 mi
9:00 PM9 °FPassing clouds.9 mph78%30.50 "Hg15 mi
8:00 PM10 °FLight snow. Passing clouds.12 mph79%30.47 "Hg15 mi
7:00 PM12 °FOvercast.12 mph79%30.45 "Hg15 mi
Weather by CustomWeather, © 2016

See weather overviewHow to use our weather pages